User: anonymous   Login
Location: Maiden_LMO
(35.5760°N, 81.2120°W)
Time: 11:05:18
(UTC-04:00)
Language:

Cosmos 2278 Rocket - Orbit

View from above orbital plane
View from above orbital plane
View from above satellite
View from above satellite

Ground track
Ground track

The orbit data is extracted from the following two-line orbital elements,

1 23088U 94023B   16151.02497387 -.00000298  00000-0 -12998-3 0  9996
2 23088  71.0004   6.2531 0005195 300.9376  59.1236 14.14641723141353
Epoch (UTC): 30 May 2016 00:35:57
Eccentricity: 0.0005195
inclination: 71.0004°
perigee height: 840 km
apogee height: 847 km
right ascension of ascending node: 6.2531°
argument of perigee: 300.9376°
revolutions per day: 14.14641723
mean anomaly at epoch: 59.1236°
orbit number at epoch: 14135

The dashed part of the orbit path shows where the satellite is in the earth's shadow,  

DLR